{"data":{"norad_id":53913,"epoch":"2026-09-20T05:27:16.795008Z","epoch_age_seconds":110544,"freshness":"FRESH","line1":"1 53913U 22119AD  26263.22727772  .00000290  00000+0  36300-4 0  9997","line2":"2 53913  53.1597 160.1316 0001557  81.4895 278.6273 15.08831244221190","mean_motion":15.08831244,"eccentricity":0.0001557,"inclination_deg":53.1597,"raan_deg":160.1316,"arg_perigee_deg":81.4895,"mean_anomaly_deg":278.6273,"bstar":3.63e-5,"rev_number":22119,"period_min":95.438108517854,"perigee_km":538.69303453897,"apogee_km":540.84727082631,"semimajor_km":6917.9071526826,"source":"CELESTRAK","updated_at":"2026-09-21T09:00:33.033506Z"}}